Cloud_Cover
100 99 100 90 1 63 100 52 0 2 5 1 5 11 100 100 99 88 6 100 77 100 100 100 60 99 100 42 28 90 61 100 100 100 100 100 100 100 98 100 96 100 36 98 100
8 100 100 99 0 2 27 3 2 0 0 0 0 14 81 100 85 99 8 100 93 70 100 100 68 98 100 98 34 88 16 62 96 100 100 100 100 100 100 100 84 98 100 100 100
1 79 95 79 90 0 16 0 8 1 0 0 0 0 5 100 87 76 6 85 100 100 100 100 100 99 90 100 99 9 30 59 14 100 100 100 100 100 100 100 78 100 100 100 100
78 0 75 76 3 31 4 0 1 0 0 0 0 0 0 5 84 51 40 87 100 100 100 100 100 94 99 97 100 5 11 90 100 99 100 100 100 100 100 100 100 100 100 94 100
88 98 1 93 97 15 4 0 1 0 2 0 0 0 5 7 44 27 100 100 100 100 91 100 100 100 100 96 100 31 75 80 64 78 100 100 100 100 100 100 100 100 99 100 100
99 95 85 26 63 55 0 0 1 5 5 3 0 0 28 58 11 68 100 100 100 100 100 100 100 100 100 100 47 100 100 100 78 100 82 100 100 100 100 100 100 100 100 100 100
100 100 100 73 30 46 13 0 2 5 34 5 0 5 12 35 5 5 88 100 100 100 100 100 100 100 100 100 91 44 100 97 100 100 92 100 100 100 100 100 100 100 100 100 100
100 100 100 100 10 5 19 1 5 5 31 5 0 3 8 42 62 22 40 100 100 100 100 100 100 100 100 100 99 4 100 100 100 100 95 100 82 100 100 100 100 100 100 100 100
100 100 100 100 100 97 1 5 5 44 28 5 0 0 31 56 97 100 100 97 100 84 100 100 100 100 100 100 100 15 100 100 100 100 100 100 100 99 100 100 100 100 100 100 100
100 100 100 100 100 100 2 5 6 95 59 5 0 1 6 90 100 98 94 100 100 100 100 100 100 96 100 100 27 4 57 100 100 100 100 100 95 86 99 98 97 100 100 100 100
100 100 100 100 84 100 10 5 14 88 81 4 1 0 3 37 100 97 100 100 100 89 100 100 100 100 70 100 100 74 52 64 95 100 100 100 100 100 95 100 60 94 100 96 100
100 100 100 100 95 100 5 5 27 68 89 2 0 0 4 84 81 100 100 100 100 100 96 100 100 100 95 100 100 100 40 14 100 100 100 100 100 100 98 61 91 99 78 92 100
100 100 100 100 78 34 6 5 5 63 71 5 4 4 97 60 90 83 96 95 100 100 100 100 100 100 100 100 100 100 100 36 93 100 100 81 62 97 52 100 60 100 100 100 100
100 100 100 100 51 9 5 5 5 5 55 31 4 21 64 88 100 100 100 100 100 98 100 100 100 100 100 63 100 100 100 100 66 7 15 63 99 100 100 100 12 6 100 100 100
100 100 100 96 9 5 5 5 5 10 98 54 84 6 5 49 100 100 100 100 100 74 93 100 100 100 100 100 100 100 100 100 100 5 4 38 5 100 97 100 91 88 42 94 100
100 100 99 73 72 5 5 5 18 61 82 94 31 17 18 20 91 100 100 100 96 100 100 100 100 100 100 100 100 100 96 81 60 53 46 15 8 93 100 100 100 100 52 5 86
100 100 22 10 43 6 5 10 80 90 100 67 58 26 11 62 98 100 100 94 100 93 100 100 100 100 96 100 100 100 100 80 96 87 45 5 5 0 62 72 100 100 100 34 62
100 79 11 56 66 59 9 22 56 88 100 67 5 76 67 93 100 100 100 100 89 100 100 100 100 100 100 100 100 100 96 13 82 73 67 5 13 0 0 3 33 100 100 65 74
27 5 49 95 100 96 84 56 77 94 95 73 5 5 60 65 100 100 100 100 100 100 100 99 100 98 100 31 100 100 23 11 44 27 95 8 0 0 3 2 5 57 100 86 76
18 6 30 98 100 78 34 48 84 98 69 85 78 24 5 100 85 88 100 100 100 100 100 100 100 100 100 96 83 100 100 100 55 25 34 1 4 4 0 5 5 93 51 100 93
5 27 23 88 52 83 96 83 83 82 100 100 100 98 51 76 100 100 78 100 100 98 93 100 86 99 66 84 68 100 95 94 90 20 18 80 38 21 1 0 3 1 59 100 100
5 48 59 43 95 59 95 26 50 78 58 84 93 99 21 5 100 100 92 100 95 94 82 53 92 98 100 100 100 100 68 68 83 31 5 53 100 73 6 2 1 0 0 6 100
22 90 87 80 62 34 6 8 18 11 70 30 64 99 63 6 97 100 100 52 51 90 30 21 94 92 100 82 91 100 100 100 94 99 98 100 100 89 100 100 48 4 5 4 0
6 83 98 100 95 72 6 5 5 5 78 85 46 88 100 51 19 100 100 100 100 100 82 14 9 98 71 86 61 61 27 38 17 44 100 96 100 100 100 100 14 5 5 5 5
5 1 92 94 47 6 5 5 5 5 5 5 89 54 57 100 64 100 100 70 70 55 16 96 100 91 44 74 76 75 26 17 8 27 19 99 12 100 100 93 13 0 5 5 5
5 3 100 5 5 6 5 5 5 3 5 5 5 5 5 5 74 5 100 100 100 100 100 100 100 100 100 100 100 100 100 100 100 98 9 67 64 100 5 5 18 5 0 1 5
5 7 72 5 12 60 11 40 82 5 5 5 5 5 6 15 10 14 67 78 6 34 94 96 100 100 100 100 100 100 100 89 96 64 7 40 85 79 43 50 7 4 0 0 0